AD2FB Weather Reports


time (UTC)temp
C
wind
direction
speed
KPH
gust
KPH
rain 1hr
cm
rain 24hr
cm
rain mn
cm
humidity
%
barometer
mb
20260509230035 19 250 6.4 9.7 0.00 0.76 0.76 65 1006.7
20260509225125 19 182 3.2 6.4 0.00 0.76 0.76 65 1006.7
20260509224053 17 58 1.6 6.4 0.00 0.76 0.76 71 1006.8
20260509223023 18 207 3.2 6.4 0.00 0.76 0.76 67 1006.9
20260509222035 19 196 4.8 8.0 0.00 0.76 0.76 65 1006.8
20260509221020 21 252 3.2 6.4 0.00 0.76 0.76 62 1006.7
20260509220027 21 163 4.8 9.7 0.00 0.76 0.76 62 1007.0
20260509215036 21 268 3.2 9.7 0.00 0.76 0.76 60 1007.0
20260509214025 21 273 4.8 11.3 0.00 0.76 0.76 62 1007.2
20260509213034 20 231 4.8 9.7 0.00 0.76 0.76 65 1007.2
20260509212023 18 273 3.2 12.9 0.00 0.76 0.76 71 1007.2
20260509211031 16 204 4.8 11.3 0.00 0.76 0.76 77 1007.5
20260509210020 17 188 6.4 12.9 0.00 0.76 0.76 75 1007.5
20260509205028 17 271 4.8 9.7 0.00 0.76 0.76 76 1007.7
20260509204036 16 133 6.4 12.9 0.00 0.76 0.76 77 1007.8
20260509203025 16 352 3.2 6.4 0.00 0.76 0.76 78 1007.8
20260509202033 16 138 4.8 8.0 0.00 0.76 0.76 78 1008.0
20260509201022 16 206 3.2 6.4 0.00 0.76 0.76 79 1008.1
20260509200030 15 217 3.2 6.4 0.00 0.76 0.76 85 1008.3
20260509195040 14 238 4.8 11.3 0.00 0.76 0.76 84 1008.5
20260509194028 15 227 4.8 9.7 0.00 0.76 0.76 82 1008.5
20260509193036 15 331 4.8 9.7 0.00 0.76 0.76 81 1008.5
20260509192025 15 188 4.8 8.0 0.00 0.76 0.76 81 1008.6
20260509191033 15 212 4.8 8.0 0.00 0.76 0.76 80 1008.6
20260509190023 15 215 3.2 6.4 0.00 0.76 0.76 80 1008.8
20260509185030 14 130 4.8 9.7 0.00 0.76 0.76 83 1008.8
20260509184020 14 187 4.8 8.0 0.00 0.76 0.76 83 1008.9
20260509183028 15 303 3.2 9.7 0.00 0.76 0.76 82 1008.9
20260509182036 15 190 4.8 8.0 0.00 0.76 0.76 82 1009.0
20260509181025 15 229 3.2 6.4 0.03 0.76 0.76 82 1009.0
20260509180033 14 250 3.2 6.4 0.03 0.76 0.76 83 1009.0
20260509175023 15 159 3.2 4.8 0.03 0.76 0.76 82 1009.0
20260509174030 14 29 4.8 6.4 0.03 0.76 0.76 83 1009.0
20260509173020 13 219 4.8 9.7 0.03 0.76 0.76 84 1008.9
20260509172027 13 79 3.2 4.8 0.03 0.76 0.76 84 1008.9
20260509171035 13 234 1.6 4.8 0.00 0.74 0.74 85 1008.9
20260509170025 13 72 1.6 3.2 0.00 0.74 0.74 84 1008.9
20260509165033 13 326 4.8 6.4 0.00 0.74 0.74 84 1008.9
20260509164023 13 337 4.8 8.0 0.00 0.74 0.74 83 1008.9
20260509163033 15 258 4.8 8.0 0.00 0.74 0.74 82 1008.9
20260509162020 14 161 3.2 6.4 0.00 0.74 0.74 83 1008.9
20260509161027 13 164 4.8 9.7 0.00 0.74 0.74 85 1009.0
20260509160036 13 335 3.2 6.4 0.00 0.74 0.74 86 1009.2
20260509155025 13 260 3.2 8.0 0.00 0.74 0.74 87 1009.5
20260509154033 13 249 1.6 4.8 0.00 0.74 0.74 89 1009.6
20260509153024 12 212 3.2 8.0 0.00 0.74 0.74 89 1009.6
20260509152051 13 143 4.8 8.0 0.00 0.74 0.74 89 1009.6
20260509151040 13 287 4.8 8.0 0.00 0.74 0.74 90 1009.5
20260509150028 12 178 4.8 11.3 0.00 0.74 0.74 91 1009.5
20260509145036 13 301 1.6 4.8 0.00 0.74 0.74 92 1009.4
20260509144025 12 203 0.0 4.8 0.00 0.74 0.74 94 1009.5
20260509143033 12 270 0.0 3.2 0.00 0.74 0.74 95 1009.5
20260509142023 12 293 0.0 3.2 0.00 0.74 0.74 97 1009.5
20260509141030 11 113 0.0 4.8 0.03 0.74 0.74 97 1009.5
20260509140020 11 141 0.0 3.2 0.03 0.74 0.74 99 1009.8
20260509135028 11 338 1.6 3.2 0.05 0.74 0.74 99 1009.8
20260509134036 10 144 1.6 8.0 0.05 0.74 0.74 99 1010.0
20260509133026 10 25 0.0 4.8 0.08 0.74 0.74 99 1010.2
20260509132054 10 0.0 0.0 0.10 0.74 0.74 99 1010.4
20260509131023 9 0.0 0.0 0.10 0.71 0.71 99 1010.4
20260509130031 9 0.0 0.0 0.13 0.71 0.71 99 1010.3
20260509125041 8 0.0 0.0 0.13 0.69 0.69 99 1010.4
20260509124028 8 0.0 0.0 0.15 0.69 0.69 99 1010.4
20260509123056 8 0.0 0.0 0.15 0.66 0.66 99 1010.3
20260509122026 8 0.0 0.0 0.18 0.64 0.64 99 1010.6
20260509121054 8 0.0 0.0 0.18 0.61 0.61 99 1010.7
20260509120023 8 0.0 0.0 0.23 0.58 0.58 99 1010.5
20260509115051 7 45 0.0 1.6 0.23 0.56 0.56 99 1010.6
20260509114041 7 0.0 0.0 0.25 0.53 0.53 99 1010.7
20260509113029 7 0.0 1.6 0.25 0.51 0.51 99 1010.7
20260509112057 7 0.0 0.0 0.23 0.46 0.46 99 1010.7
20260509111027 7 0.0 0.0 0.23 0.43 0.43 99 1010.8
20260509110034 7 0.0 0.0 0.20 0.36 0.36 99 1010.7
20260509105046 7 0.0 0.0 0.20 0.33 0.33 99 1010.6
20260509104032 7 0.0 0.0 0.15 0.28 0.28 99 1010.5
20260509103022 6 0.0 0.0 0.15 0.25 0.25 99 1010.5
20260509102029 6 0.0 0.0 0.13 0.23 0.23 99 1010.2
20260509101039 6 0.0 0.0 0.13 0.20 0.20 99 1010.4
20260509100027 6 0.0 0.0 0.10 0.15 0.15 99 1010.4
20260509095035 6 0.0 0.0 0.08 0.13 0.13 99 1010.4
20260509094044 6 0.0 0.0 0.08 0.13 0.13 99 1010.4
20260509093032 6 0.0 0.0 0.05 0.10 0.10 99 1010.6
20260509092021 6 0.0 0.0 0.05 0.10 0.10 99 1010.7
20260509091030 6 0.0 0.0 0.03 0.08 0.08 99 1010.7
20260509090019 6 0.0 0.0 0.00 0.05 0.05 99 1010.8
20260509085027 6 0.0 0.0 0.00 0.05 0.05 99 1010.7
20260509084035 6 0.0 0.0 0.00 0.05 0.05 99 1010.6
20260509083024 6 68 0.0 3.2 0.00 0.05 0.05 99 1010.5
20260509082033 6 0.0 0.0 0.00 0.05 0.05 99 1010.8
20260509081022 6 124 1.6 4.8 0.00 0.05 0.05 99 1010.8
20260509080030 6 0.0 1.6 0.00 0.05 0.05 99 1010.8
20260509075020 6 350 3.2 6.4 0.00 0.05 0.05 99 1010.8
20260509074028 6 138 3.2 4.8 0.00 0.05 0.05 99 1010.8
20260509073036 6 262 3.2 4.8 0.00 0.05 0.05 98 1011.2
20260509072025 6 209 1.6 3.2 0.00 0.05 0.05 98 1011.3
20260509071033 6 260 1.6 4.8 0.03 0.05 0.05 98 1011.1
20260509070043 6 273 3.2 6.4 0.03 0.05 0.05 97 1011.1
20260509065030 6 24 3.2 3.2 0.05 0.05 0.05 97 1011.4
20260509064020 6 293 0.0 4.8 0.05 0.05 0.05 96 1011.6
20260509063028 6 96 1.6 3.2 0.05 0.05 0.05 96 1011.7
20260509062036 6 90 0.0 3.2 0.05 0.05 0.05 95 1011.9
20260509061026 6 270 0.0 1.6 0.03 0.03 0.03 93 1012.0
20260509060033 6 0.0 0.0 0.03 0.03 0.03 93 1012.1
20260509055023 6 134 1.6 3.2 0.00 0.00 0.00 93 1012.1
20260509054031 6 0.0 0.0 0.00 0.00 0.00 91 1012.3
20260509053021 6 0.0 0.0 0.00 0.00 0.00 89 1012.3
20260509052028 6 0.0 0.0 0.00 0.00 0.00 87 1012.3
20260509051036 6 0.0 0.0 0.00 0.00 0.00 85 1012.3
20260509050026 7 0.0 0.0 0.00 0.00 0.00 83 1012.3
20260509045034 7 0.0 0.0 0.00 0.00 0.00 81 1012.3
20260509044023 7 299 1.6 4.8 0.00 0.00 0.00 78 1012.3
20260509043031 7 225 0.0 3.2 0.00 0.00 0.00 77 1012.3
20260509042021 7 301 3.2 4.8 0.00 0.00 0.00 77 1012.2
20260509041029 7 13 1.6 4.8 0.00 0.00 0.00 77 1012.2
20260509040056 7 338 3.2 4.8 0.00 0.00 0.00 77 1012.4
20260509035026 7 349 3.2 4.8 0.00 0.00 0.00 76 1012.4
20260509034034 7 42 3.2 4.8 0.00 0.00 0.00 76 1012.5
20260509033024 7 261 1.6 3.2 0.00 0.00 0.00 75 1012.5
20260509032032 7 88 1.6 4.8 0.00 0.00 0.00 75 1012.5
20260509031022 7 308 3.2 4.8 0.00 0.00 0.00 75 1012.6
20260509030029 7 0.0 1.6 0.00 0.00 0.00 75 1012.4
20260509025037 7 318 3.2 6.4 0.00 0.00 0.00 75 1012.4
20260509024027 8 322 3.2 6.4 0.00 0.00 0.00 73 1012.4
20260509023034 8 77 3.2 6.4 0.00 0.00 0.00 73 1012.4
20260509022024 8 274 4.8 6.4 0.00 0.00 0.00 73 1012.4
20260509021032 8 265 4.8 8.0 0.00 0.00 0.00 71 1012.3
20260509020043 8 7 6.4 11.3 0.00 0.00 0.00 71 1012.3
20260509015029 8 322 4.8 6.4 0.00 0.00 0.00 69 1012.3
20260509014019 9 177 4.8 11.3 0.00 0.00 0.00 67 1012.1
20260509013027 10 115 4.8 9.7 0.00 0.00 0.00 64 1011.9
20260509012035 10 266 4.8 8.0 0.00 0.00 0.00 62 1011.9
20260509011024 10 274 3.2 4.8 0.00 0.00 0.00 62 1011.9
20260509010032 10 139 1.6 4.8 0.00 0.00 0.00 60 1011.7
20260509005022 10 275 3.2 4.8 0.00 0.00 0.00 60 1011.5
20260509004030 11 302 1.6 6.4 0.00 0.00 0.00 59 1011.4
20260509003019 11 69 4.8 8.0 0.00 0.00 0.00 57 1011.2
20260509002027 11 59 4.8 8.0 0.00 0.00 0.00 55 1011.1
20260509001035 12 325 4.8 8.0 0.00 0.00 0.00 53 1011.0
20260509000045 13 342 4.8 8.0 0.00 0.00 0.00 51 1010.8
20260508235032 15 338 0.0 3.2 0.00 0.00 0.00 46 1010.6
20260508234022 16 330 1.6 4.8 0.00 0.00 0.00 41 1010.5
20260508233050 19 289 1.6 3.2 0.00 0.00 0.00 38 1010.5
20260508232019 20 304 1.6 3.2 0.00 0.00 0.00 36 1010.5
20260508231027 18 281 0.0 1.6 0.00 0.00 0.00 39 1010.4